Погода в Михайловском

Россия / Республика Северная Осетия — Алания     43°06′00″N   44°37′56″E
темп.,
°C
ветер,
м/с
пор.,
м/с
влажн.,
%
обл.,
%
осадки,
мм/ч
давл.,
гПа
погр.,
м
15 апреля, чт
чт1500:00+5ю117994 0.0 101820
03:00+3ю22707 0.0 102022
06:00+4ю22691 0.0 102033
09:00+12с11483 0.0 1017578
12:00+15с323792 0.0 10151399
15:00+16с4337100 0.0 10151978
18:00+12св245770 0.0 1017377
21:00+9юв126588 0.1 1019103
16 апреля, пт
пт1600:00+8ююв226334 0.0 101926
03:00+7ю22576 0.0 101916
06:00+7ю215616 0.0 102021
09:00+13ссв22446 0.0 1018838
12:00+16св434140 0.0 10171634
15:00+16св334557 0.4 10161605
18:00+14всв356172 0.2 1016299
21:00+10ююв226515 0.2 101850
17 апреля, сб
сб1700:00+9ю226156 0.0 102031
03:00+8ююв226235 0.0 101834
06:00+8ю216294 0.0 101821
09:00+12сз336299 0.0 1020645
12:00+11сз3379100 0.1 1021714
15:00+9зсз2490100 0.3 1021457
18:00+7зсз2397100 0.6 1023370
21:00+7ссз0195100 1.2 1023264
18 апреля, вс
вс1800:00+7в2395100 0.0 1021236
03:00+7с1198100 0.1 1022192
06:00+7с1197100 0.0 1021178
09:00+9всв2389100 0.1 1018296
12:00+16с226116 0.0 1015804
15:00+17с2255100 0.0 10141068
18:00+14ссз1178100 0.6 1015126
21:00+10юз019595 2.4 101737
19 апреля, пн
пн1900:00+10ю119599 0.5 101724
03:00+10ююв218698 0.5 101716
06:00+10ююв32716 0.0 101636
09:00+18ссв225056 0.0 1014520
12:00+21ссв334245 0.0 10131578
15:00+20св3345100 0.0 10131163
18:00+17в2558100 0.0 1012278
21:00+13ююв336479 0.0 101357